Hourly Data Report for November 09, 2019

CARBERRY CS
MANITOBA
Current Station Operator: ECCC - MSC

49°54'20.900" N
99°21'26.800" W
383.50 m
5010547
71170
WZE

Download Data

Hourly Data (November 2019)
Hourly Data Report for November 9, 2019
TIME
LST
Temp Definition
°C
Dew Point Definition
°C
Rel Hum Definition
%
Precip. Amount Definition
mm

Wind Dir Definition
10's deg

Wind Spd Definition
km/h
Visibility Definition
km
Stn Press Definition
kPa
Hmdx Definition


Wind Chill Definition


Weather Definition


00:00 -5.5 -6.1 96 0.0 27 12   96.57   -10 LegendNANA
01:00 -4.3 -5.0 95 0.0 29 9   96.57   -8 LegendNANA
02:00 -2.8 -3.5 95 0.0 27 11   96.56   -7 LegendNANA
03:00 -2.4 -3.6 92 0.0 28 11   96.59   -6 LegendNANA
04:00 -2.4 -3.1 95 0.0 27 11   96.58   -6 LegendNANA
05:00 -2.1 -2.8 95 0.0 27 11   96.58   -6 LegendNANA
06:00 -2.2 -2.8 96 0.0 30 2   96.56   -3 LegendNANA
07:00 -4.0 -4.9 94 0.0 6 8   96.59   -7 LegendNANA
08:00 -4.4 -4.9 96 0.3 4 10   96.65   -9 LegendNANA
09:00 -4.6 -5.5 93 0.4 3 11   96.66   -9 LegendNANA
10:00 -4.6 -6.5 86 0.2 3 15   96.70   -10 LegendNANA
11:00 -4.8 -7.4 82 0.0 2 18   96.77   -11 LegendNANA
12:00 -4.7 -8.3 76 0.0 1 15   96.80   -10 LegendNANA
13:00 -4.5 -8.6 73 0.0 36 19   96.83   -11 LegendNANA
14:00 -4.3 -8.2 74 0.0 36 17   96.88   -10 LegendNANA
15:00 -5.0 -8.7 75 0.0 36 20   96.96   -12 LegendNANA
16:00 -5.4 -9.1 76 0.0 36 17   97.05   -11 LegendNANA
17:00 -6.4 -9.9 76 0.0 1 20   97.18   -13 LegendNANA
18:00 -7.9 -10.5 81 0.0 1 17   97.33   -15 LegendNANA
19:00 -8.0 -11.3 77 0.0 36 18   97.42   -15 LegendNANA
20:00 -8.6 -12.0 76 0.0 1 24   97.48   -17 LegendNANA
21:00 -9.5 -13.1 75 0.0 35 18   97.55   -17 LegendNANA
22:00 -10.8 -14.8 73 0.0 35 13   97.65   -17 LegendNANA
23:00 -11.1 -14.5 76 0.0 35 14   97.72   -18 LegendNANA

Notes on Data Quality.

Legend

  • E = Estimated
  • M = Missing
  • NA = Not Available*
  • [empty] = Indicates an unobserved value
Date modified: